Tracking 29892 objects as of 21-Nov-2024
HD Live streaming from Space Station
objects crossing your sky now

STARLINK-3231

Track STARLINK-3231 now!
10-day predictions
STARLINK-3231 is classified as:


NORAD ID: 49744
Int'l Code: 2021-115W
Perigee: 545.8 km
Apogee: 547.8 km
Inclination: 53.2 °
Period: 95.4 minutes
Semi major axis: 6917 km
RCS: Unknown
Launch date: December 2, 2021
Source: United States (US)
Launch site: AIR FORCE EASTERN TEST RANGE (AFETR)
Your satellite tracking list
Your tracking list is empty




NASA's NSSDC Master Catalog

Two Line Element Set (TLE):
1 49744U 21115W   24325.81299526 -.00002810  00000-0 -15842-3 0  9992
2 49744  53.2162 116.3283 0001426  79.6697 280.4455 15.08862329165105
Source of the keplerian elements: AFSPC